[[{"header":{"parameterUnit":"m.s-1","parameterCategory":1,"la1":30.2991,"la2":30.254,"lo1":-89.0895,"lo2":-89.0444,"dy":0.0017,"dx":0.0017,"nx":28,"ny":28,"refTime":"2024-06-04T03:00:00:Z","depth":0,"parameterNumber":2,"parameterNumberName":"U-component_of_WINDS"},"data":[0,0,0,0,0,0,0,0,0,0,0,0,0,0,0,0,0,0,0,0,0,0,0,0,0,0,0,0,0,0,0,0,0,0,0,0,0,0,0,0,0,0,0,0,0,0,0,0,0,0,0,0,0,0,0,0,0,0,-2.8629,-2.863,0,-2.8708,-2.8709,-2.871,-2.8698,-2.8697,-2.8695,-2.8694,-2.8775,-2.8778,-2.8781,0,0,0,0,0,0,0,0,0,0,0,0,0,-2.8468,-2.8471,-2.8629,-2.863,-2.8631,-2.8708,-2.8709,-2.871,-2.8698,-2.8697,-2.8695,-2.8693,-2.8774,-2.8778,-2.8782,0,0,0,0,0,0,0,0,0,0,0,0,0,-2.8542,-2.8472,-2.8629,-2.8634,-2.8636,-2.8708,-2.8709,-2.871,-2.8699,-2.8697,-2.8694,-2.8693,-2.8772,-2.8777,-2.8782,-2.8854,0,0,-2.8798,-2.88,0,0,0,0,0,0,0,0,-2.8538,-2.8548,-2.8632,-2.8634,-2.8636,-2.8691,-2.8682,-2.8758,-2.8699,-2.8675,-2.8694,-2.8692,-2.8748,-2.8755,-2.8775,-2.8858,-2.8861,-2.8798,-2.8801,-2.8804,-2.8805,0,0,0,0,0,0,0,-2.8533,-2.8544,-2.866,-2.8634,-2.8636,-2.8633,-2.8641,-2.8696,-2.8722,-2.8677,-2.8676,-2.8685,-2.8749,-2.877,-2.8776,-2.8862,-2.8798,-2.8803,-2.8806,-2.8808,-2.9009,-2.9011,0,0,0,0,0,0,-2.8526,-2.854,-2.8658,-2.8663,-2.8581,-2.8638,-2.8647,-2.8675,-2.8721,-2.8726,-2.8687,-2.8685,-2.8762,-2.877,-2.8779,-2.8866,-2.8803,-2.8808,-2.8811,-2.9007,-2.901,-2.9012,0,0,0,0,0,0,-2.8523,-2.8537,-2.8655,-2.8601,-2.8616,-2.8642,-2.8675,-2.8678,-2.8699,-2.8729,-2.8734,-2.8704,-2.8761,-2.8772,-2.8836,-2.8869,-2.8811,-2.8815,-2.9004,-2.9008,-2.9011,-2.9041,0,0,0,0,0,0,-2.8518,-2.8535,-2.8563,-2.8602,-2.8619,-2.8709,-2.8677,-2.8681,-2.8708,-2.8705,-2.8746,-2.8751,-2.876,-2.8828,-2.8841,-2.8875,-2.8819,-2.9001,-2.9006,-2.901,-2.9037,-2.9045,-2.9052,0,0,0,0,0,-2.8512,-2.8568,-2.8564,-2.8578,-2.8653,-2.8711,-2.8721,-2.8731,-2.871,-2.8738,-2.8758,-2.8749,-2.8864,-2.8835,-2.8849,-2.8885,-2.8999,-2.9004,-2.9009,-2.9034,-2.9044,-2.9052,0,0,0,0,0,0,-2.8531,-2.8573,-2.8569,-2.8639,-2.8672,-2.8709,-2.8744,-2.8741,-2.878,-2.8776,-2.8786,-2.8796,-2.886,-2.8879,-2.8846,-2.8957,-2.8928,-2.8937,-2.8942,-2.8952,-2.8959,-2.8953,-2.8823,0,0,0,0,0,-2.8544,-2.8587,-2.8621,-2.8679,-2.8696,-2.8718,-2.8743,-2.8748,-2.8782,-2.8796,-2.882,-2.8854,-2.8898,-2.8926,-2.8968,-2.904,-2.9049,-2.9072,-2.908,-2.9086,-2.9092,-2.9133,-2.9144,-2.9029,-2.9029,-2.9029,0,0,-2.8569,-2.8598,-2.8624,-2.8684,-2.871,-2.8755,-2.8729,-2.8778,-2.8811,-2.8803,-2.8865,-2.8884,-2.8922,-2.8991,-2.9023,-2.9009,-2.9126,-2.9092,-2.9097,-2.91,-2.9139,-2.915,-2.916,-2.9032,-2.9032,-2.9031,0,0,-2.8639,-2.8665,-2.8716,-2.8743,-2.8783,-2.8797,-2.881,-2.8848,-2.8861,-2.8923,-2.8918,-2.8959,-2.9033,-2.9061,-2.9085,-2.9167,-2.9161,-2.918,-2.9218,-2.9258,-2.9267,-2.9275,-2.9304,-2.9314,-2.9187,-2.9187,-2.9187,0,-2.8666,-2.8733,-2.8743,-2.8793,-2.8819,-2.8815,-2.8868,-2.8893,-2.8945,-2.8963,-2.8948,-2.9042,-2.9067,-2.9143,-2.9163,-2.9182,-2.9197,-2.9175,-2.9265,-2.9273,-2.928,-2.9309,-2.932,-2.9189,-2.9189,-2.9189,-2.9189,0,-2.8764,-2.8811,-2.8848,-2.8898,-2.893,-2.898,-2.8998,-2.9029,-2.9032,-2.9047,-2.9111,-2.9142,-2.919,-2.9209,-2.9211,-2.9285,-2.9275,-2.9262,-2.9233,-2.9293,-2.932,-2.9331,-2.9192,-2.9191,-2.9191,-2.919,0,0,-2.8847,-2.8903,-2.8916,-2.8939,-2.8984,-2.902,-2.9071,-2.9119,-2.9145,-2.9181,-2.9224,-2.9288,-2.9277,-2.9304,-2.931,-2.9345,-2.9408,-2.9327,-2.9328,-2.9341,-2.9491,-2.95,-2.9512,-2.9405,-2.9407,-2.9409,-2.9488,0,-2.8921,-2.901,-2.9022,-2.9102,-2.9145,-2.9143,-2.9187,-2.922,-2.9237,-2.9276,-2.9295,-2.934,-2.9321,-2.9338,-2.9372,-2.9393,-2.9438,-2.9388,-2.9445,-2.9447,-2.9435,-2.9526,-2.9536,-2.9609,-2.9498,-2.95,-2.9501,0,-2.9018,-2.9057,-2.9142,-2.9181,-2.92,-2.924,-2.9285,-2.9323,-2.936,-2.937,-2.9401,-2.9403,-2.9456,-2.9426,-2.95,-2.9465,-2.949,-2.9504,-2.9507,-2.9512,-2.9477,-2.9534,-2.9633,-2.9644,-2.9518,-2.9516,-2.9515,0,-2.907,-2.9144,-2.9204,-2.9224,-2.9271,-2.9299,-2.932,-2.9355,-2.9384,-2.9423,-2.9442,-2.9487,-2.9511,-2.9547,-2.9561,-2.9538,-2.9634,-2.9605,-2.9644,-2.9644,-2.9663,-2.9662,-2.9768,-2.968,-2.968,-2.968,-2.968,0,-2.9151,-2.9202,-2.9228,-2.9265,-2.9323,-2.9336,-2.9393,-2.9413,-2.9445,-2.9486,-2.9487,-2.9525,-2.9543,-2.9584,-2.9596,-2.9655,-2.9667,-2.9676,-2.9679,-2.9676,-2.9675,-2.9691,-2.9686,-2.9683,-2.9682,-2.9682,-2.9681,0,-2.9217,-2.9237,-2.9302,-2.9342,-2.9353,-2.9394,-2.9428,-2.9465,-2.9482,-2.9534,-2.9547,-2.9573,-2.9622,-2.9641,-2.97,-2.9709,-2.9777,-2.9776,-2.9765,-2.9765,-2.9803,-2.9799,-2.9922,-2.9939,-2.9841,-2.9842,-2.9843,0,-2.9267,-2.9307,-2.9351,-2.9379,-2.9401,-2.9446,-2.9475,-2.949,-2.952,-2.9566,-2.9596,-2.9645,-2.9685,-2.9764,-2.9789,-2.9835,-2.9834,-2.9874,-2.9841,-2.9837,-2.9834,-2.9832,-2.9836,-2.988,-2.9881,-2.9882,-2.9882,0,-2.9354,-2.9362,-2.9403,-2.9449,-2.9484,-2.952,-2.9555,-2.9578,-2.9599,-2.9633,-2.9683,-2.9714,-2.9775,-2.9824,-2.9872,-2.9893,-2.9892,-2.9893,-2.9904,-2.9902,-2.9893,-2.9898,-2.9781,-2.989,-2.9889,-2.9889,-2.9888,-2.9888,-2.9414,-2.9449,-2.9486,-2.9533,-2.9561,-2.9595,-2.9631,-2.9653,-2.9695,-2.9746,-2.9752,-2.9807,-2.9844,-2.9907,-2.9932,-2.9974,-2.9964,-2.998,-2.9984,-2.9988,-2.999,-2.9887,-2.9983,-2.9983,-2.9983,-2.9983,-2.9982,0,-2.95,-2.9524,-2.9567,-2.9617,-2.9654,-2.965,-2.9689,-2.972,-2.9768,-2.9802,-2.9842,-2.99,-2.9948,-2.9977,-3.0025,-3.0054,-3.0054,-3.0066,-3.0063,-3.0069,-2.9997,-2.9983,-3.0065,-3.0065,-3.0065,-3.0065,-3.0065,-3.0065,-2.955,-2.961,-2.9622,-2.9696,-2.972,-2.9773,-2.9796,-2.9827,-2.9855,-2.992,-2.996,-2.9978,-3.0011,-3.0062,-3.0106,-3.0113,-3.0131,-3.0143,-3.015,-3.0082,-3.0074,-3.0065,-3.0052,-3.0147,-3.0147,-3.0217,-3.0218,-3.0218]},{"header":{"parameterUnit":"m.s-1","parameterCategory":1,"la1":30.2991,"la2":30.254,"lo1":-89.0895,"lo2":-89.0444,"dy":0.0017,"dx":0.0017,"nx":28,"ny":28,"refTime":"2024-06-04T03:00:00:Z","depth":0,"parameterNumber":3,"parameterNumberName":"V-component_of_WINDS"},"data":[0,0,0,0,0,0,0,0,0,0,0,0,0,0,0,0,0,0,0,0,0,0,0,0,0,0,0,0,0,0,0,0,0,0,0,0,0,0,0,0,0,0,0,0,0,0,0,0,0,0,0,0,0,0,0,0,0,0,4.7635,4.7636,0,4.7685,4.7685,4.7686,4.768,4.7679,4.7679,4.7678,4.7725,4.7727,4.7729,0,0,0,0,0,0,0,0,0,0,0,0,0,4.7533,4.7535,4.7635,4.7636,4.7637,4.7685,4.7685,4.7686,4.768,4.7679,4.7678,4.7678,4.7725,4.7727,4.7729,0,0,0,0,0,0,0,0,0,0,0,0,0,4.7579,4.7536,4.7635,4.764,4.7641,4.7684,4.7685,4.7686,4.7681,4.7679,4.7678,4.7677,4.7724,4.7727,4.773,4.7771,0,0,4.7739,4.774,0,0,0,0,0,0,0,0,4.7577,4.7583,4.7638,4.7639,4.7641,4.7675,4.7667,4.7715,4.7681,4.7665,4.7678,4.7677,4.7709,4.7714,4.7725,4.7774,4.7776,4.7739,4.7741,4.7742,4.7743,0,0,0,0,0,0,0,4.7574,4.7581,4.7655,4.7639,4.764,4.7638,4.7643,4.7676,4.7693,4.7667,4.7666,4.7672,4.771,4.7722,4.7726,4.7776,4.7739,4.7742,4.7744,4.7745,4.7861,4.7863,0,0,0,0,0,0,4.757,4.7578,4.7653,4.7656,4.7605,4.7641,4.7647,4.7665,4.7693,4.7696,4.7673,4.7672,4.7718,4.7723,4.7728,4.7779,4.7742,4.7745,4.7747,4.786,4.7862,4.7863,0,0,0,0,0,0,4.7568,4.7576,4.7651,4.7617,4.7627,4.7644,4.7665,4.7667,4.7679,4.7698,4.7701,4.7683,4.7717,4.7724,4.7761,4.778,4.7746,4.7749,4.7858,4.786,4.7862,4.788,0,0,0,0,0,0,4.7565,4.7576,4.7593,4.7618,4.7628,4.7684,4.7666,4.7669,4.7685,4.7684,4.7708,4.7711,4.7717,4.7756,4.7764,4.7784,4.7751,4.7857,4.7859,4.7862,4.7878,4.7883,4.7887,0,0,0,0,0,4.7561,4.7595,4.7593,4.7603,4.765,4.7685,4.7691,4.7698,4.7687,4.7703,4.7715,4.771,4.7777,4.776,4.7769,4.779,4.7856,4.7859,4.7861,4.7876,4.7882,4.7887,0,0,0,0,0,0,4.7571,4.7598,4.7597,4.764,4.7661,4.7685,4.7706,4.7704,4.7727,4.7725,4.7732,4.7737,4.7775,4.7786,4.7767,4.7831,4.7814,4.7819,4.7823,4.7828,4.7833,4.7829,4.7754,0,0,0,0,0,4.7578,4.7606,4.7628,4.7664,4.7674,4.7688,4.7704,4.7708,4.7728,4.7737,4.7751,4.7771,4.7796,4.7813,4.7837,4.788,4.7885,4.7898,4.7902,4.7906,4.791,4.7933,4.7939,4.7873,4.7873,4.7873,0,0,4.7593,4.7612,4.7628,4.7666,4.7683,4.771,4.7695,4.7725,4.7745,4.7741,4.7777,4.7789,4.7811,4.7851,4.7869,4.7861,4.7929,4.7909,4.7912,4.7914,4.7936,4.7943,4.7948,4.7875,4.7874,4.7874,0,0,4.7635,4.7652,4.7684,4.7701,4.7726,4.7735,4.7742,4.7766,4.7774,4.7811,4.7808,4.7831,4.7875,4.7891,4.7905,4.7953,4.7949,4.796,4.7983,4.8005,4.801,4.8015,4.8032,4.8038,4.7964,4.7964,4.7964,0,4.765,4.7693,4.77,4.773,4.7747,4.7745,4.7777,4.7792,4.7824,4.7835,4.7825,4.788,4.7895,4.7939,4.7951,4.7962,4.797,4.7958,4.8009,4.8014,4.8018,4.8034,4.8041,4.7965,4.7965,4.7965,4.7965,0,4.771,4.7739,4.7762,4.7794,4.7812,4.7843,4.7855,4.7873,4.7874,4.7884,4.7921,4.7939,4.7967,4.7977,4.7979,4.8021,4.8016,4.8008,4.7991,4.8026,4.8041,4.8047,4.7967,4.7967,4.7966,4.7966,0,0,4.776,4.7795,4.7803,4.7818,4.7845,4.7867,4.7897,4.7926,4.7941,4.7962,4.7988,4.8025,4.8018,4.8033,4.8037,4.8056,4.8093,4.8046,4.8046,4.8054,4.814,4.8146,4.8154,4.809,4.8092,4.8093,4.8139,0,4.7804,4.786,4.7867,4.7915,4.7942,4.7941,4.7967,4.7986,4.7996,4.8019,4.8029,4.8055,4.8044,4.8054,4.8073,4.8084,4.811,4.8081,4.8113,4.8115,4.8108,4.8162,4.8168,4.8211,4.8145,4.8146,4.8146,0,4.7864,4.7888,4.794,4.7963,4.7975,4.7998,4.8025,4.8048,4.8069,4.8074,4.8092,4.8093,4.8123,4.8105,4.8147,4.8127,4.814,4.8148,4.815,4.8153,4.8133,4.8167,4.8224,4.8231,4.8156,4.8155,4.8154,0,4.7895,4.794,4.7977,4.7989,4.8018,4.8034,4.8047,4.8067,4.8083,4.8106,4.8117,4.8142,4.8156,4.8176,4.8183,4.8169,4.8224,4.8207,4.8229,4.8229,4.8241,4.8241,4.8302,4.825,4.8249,4.8249,4.8249,0,4.7944,4.7976,4.7992,4.8014,4.8049,4.8057,4.8091,4.8102,4.812,4.8144,4.8144,4.8166,4.8174,4.8198,4.8204,4.8237,4.8243,4.8248,4.825,4.8249,4.8248,4.8258,4.8255,4.8251,4.8251,4.825,4.825,0,4.7986,4.7997,4.8037,4.8061,4.8068,4.8092,4.8112,4.8134,4.8143,4.8173,4.8181,4.8195,4.8223,4.8232,4.8265,4.8269,4.8308,4.8307,4.8301,4.8302,4.8324,4.8322,4.8394,4.8404,4.8345,4.8345,4.8346,0,4.8017,4.8041,4.8067,4.8084,4.8097,4.8124,4.8141,4.8149,4.8167,4.8193,4.8211,4.8238,4.8261,4.8305,4.8318,4.8343,4.8342,4.8366,4.8346,4.8344,4.8343,4.8341,4.8344,4.837,4.837,4.8371,4.8371,0,4.807,4.8075,4.81,4.8127,4.8148,4.8169,4.819,4.8203,4.8214,4.8234,4.8263,4.828,4.8315,4.8342,4.8368,4.8379,4.8377,4.8377,4.8384,4.8383,4.838,4.8382,4.8312,4.8376,4.8375,4.8375,4.8375,4.8374,4.8107,4.8129,4.8151,4.8179,4.8196,4.8215,4.8237,4.8249,4.8273,4.8302,4.8305,4.8336,4.8356,4.8391,4.8404,4.8427,4.8421,4.843,4.8432,4.8435,4.8437,4.8376,4.8432,4.8432,4.8432,4.8431,4.8431,0,4.8161,4.8176,4.8201,4.8231,4.8253,4.8249,4.8272,4.829,4.8318,4.8337,4.836,4.8392,4.8419,4.8434,4.846,4.8476,4.8475,4.8482,4.8481,4.8484,4.8441,4.8433,4.8482,4.8482,4.8482,4.8482,4.8482,4.8482,4.8192,4.8229,4.8236,4.828,4.8294,4.8325,4.8338,4.8356,4.8371,4.8408,4.843,4.844,4.8458,4.8485,4.8509,4.8512,4.8522,4.853,4.8533,4.8492,4.8487,4.8482,4.8475,4.8532,4.8532,4.8574,4.8574,4.8575]}]]